When you browse on this site, cookies collect data to enhance your experience and personalize the content and advertising you see.
Visit our Privacy Policy to learn more. By continuing to use the site, you agree to this use of cookies and data.
  • In Hungary
  • List of Countries
  • For 7 days
  • Water Temperature
  • Satellite Maps
  • Weather Map
  • News
  • Weather Widgets
  • user-avatar
    Login

    Hourly Weather Dhunche

    Today, 16 February, Saturday

    Time Temperature Precipitation Wind Pressure Humidity
    00:00 +2°C° 0 mm 2 mps 551 mmHg 43%
    01:00 +1°C° 0.1 mm 2 mps 550 mmHg 44%
    02:00 +1°C° 0.1 mm 2 mps 550 mmHg 45%
    03:00 +1°C° 0.1 mm 2 mps 549 mmHg 46%
    04:00 +1°C° 0.2 mm 2 mps 549 mmHg 47%
    05:00 +1°C° 0.2 mm 2 mps 549 mmHg 48%
    06:00 +1°C° 0 mm 2 mps 549 mmHg 46%
    07:00 +2°C° 0.1 mm 2 mps 550 mmHg 44%
    08:00 +4°C° 0.1 mm 1 mps 550 mmHg 41%
    09:00 +6°C° 0.1 mm 1 mps 551 mmHg 39%
    10:00 +7°C° 0.1 mm 1 mps 552 mmHg 37%
    11:00 +8°C° 0.1 mm 1 mps 552 mmHg 35%
    12:00 +8°C° 0 mm 2 mps 553 mmHg 31%
    13:00 +8°C° 0 mm 2 mps 552 mmHg 31%
    14:00 +8°C° 0 mm 2 mps 551 mmHg 30%
    15:00 +8°C° 0 mm 2 mps 551 mmHg 30%
    16:00 +6°C° 0 mm 2 mps 550 mmHg 34%
    17:00 +5°C° 0 mm 1 mps 548 mmHg 38%
    18:00 +2°C° 0 mm 0 mps 547 mmHg 43%
    19:00 +2°C° 0 mm 1 mps 547 mmHg 40%
    20:00 -1°C° 0 mm 2 mps 547 mmHg 37%
    21:00 -2°C° 0 mm 3 mps 547 mmHg 35%
    22:00 -2°C° 0 mm 3 mps 547 mmHg 32%
    23:00 -2°C° 0 mm 3 mps 547 mmHg 28%

    Tomorrow, 17 February, Sunday

    Time Temperature Precipitation Wind Pressure Humidity
    00:00 -4°C° 0 mm 3 mps 547 mmHg 25%
    01:00 -4°C° 0 mm 3 mps 547 mmHg 25%
    02:00 -4°C° 0 mm 3 mps 547 mmHg 24%
    03:00 -4°C° 0 mm 3 mps 547 mmHg 23%
    04:00 -4°C° 0 mm 3 mps 547 mmHg 23%
    05:00 -4°C° 0 mm 3 mps 547 mmHg 23%
    06:00 -4°C° 0 mm 4 mps 547 mmHg 23%
    07:00 -1°C° 0 mm 3 mps 548 mmHg 22%
    08:00 +2°C° 0 mm 2 mps 550 mmHg 21%
    09:00 +6°C° 0 mm 1 mps 551 mmHg 20%
    10:00 +7°C° 0 mm 1 mps 551 mmHg 19%
    11:00 +7°C° 0 mm 2 mps 552 mmHg 18%
    12:00 +9°C° 0 mm 2 mps 552 mmHg 17%
    13:00 +9°C° 0 mm 2 mps 551 mmHg 20%
    14:00 +9°C° 0 mm 2 mps 550 mmHg 22%
    15:00 +9°C° 0 mm 3 mps 550 mmHg 24%
    16:00 +7°C° 0 mm 2 mps 549 mmHg 31%
    17:00 +4°C° 0 mm 2 mps 547 mmHg 37%
    18:00 +3°C° 0 mm 1 mps 546 mmHg 44%
    19:00 +2°C° 0 mm 2 mps 546 mmHg 40%
    20:00 +1°C° 0 mm 2 mps 547 mmHg 36%
    21:00 -1°C° 0 mm 3 mps 547 mmHg 32%
    22:00 -1°C° 0 mm 3 mps 546 mmHg 29%
    23:00 -1°C° 0 mm 3 mps 546 mmHg 26%

    Day after tomorrow, 18 February, Monday

    Time Temperature Precipitation Wind Pressure Humidity
    00:00 -2°C° 0 mm 3 mps 546 mmHg 23%
    01:00 -2°C° 0 mm 3 mps 546 mmHg 23%
    02:00 -2°C° 0 mm 3 mps 546 mmHg 22%
    03:00 -2°C° 0 mm 3 mps 545 mmHg 22%
    04:00 -2°C° 0 mm 3 mps 545 mmHg 22%
    05:00 -2°C° 0 mm 3 mps 545 mmHg 22%
    06:00 -2°C° 0 mm 3 mps 545 mmHg 22%
    07:00 +1°C° 0 mm 2 mps 547 mmHg 21%
    08:00 +3°C° 0 mm 2 mps 548 mmHg 19%
    09:00 +7°C° 0 mm 1 mps 550 mmHg 18%
    10:00 +7°C° 0 mm 2 mps 550 mmHg 20%
    11:00 +8°C° 0 mm 2 mps 550 mmHg 21%
    12:00 +9°C° 0 mm 3 mps 551 mmHg 22%
    13:00 +9°C° 0 mm 3 mps 550 mmHg 25%
    14:00 +9°C° 0 mm 3 mps 549 mmHg 28%
    15:00 +9°C° 0 mm 3 mps 549 mmHg 31%
    16:00 +7°C° 0 mm 2 mps 548 mmHg 42%
    17:00 +5°C° 0 mm 2 mps 547 mmHg 52%
    18:00 +4°C° 0 mm 1 mps 546 mmHg 62%
    19:00 +3°C° 0 mm 1 mps 547 mmHg 62%
    20:00 +2°C° 0 mm 1 mps 547 mmHg 62%
    21:00 +1°C° 0 mm 1 mps 547 mmHg 62%
    22:00 +1°C° 0 mm 1 mps 547 mmHg 61%
    23:00 -1°C° 0 mm 2 mps 547 mmHg 60%

    19 February, Tuesday

    Time Temperature Precipitation Wind Pressure Humidity
    00:00 -1°C° 0 mm 2 mps 547 mmHg 59%
    01:00 -2°C° 0 mm 2 mps 547 mmHg 56%
    02:00 -2°C° 0 mm 2 mps 547 mmHg 54%
    03:00 -2°C° 0 mm 2 mps 546 mmHg 51%
    04:00 -2°C° 0 mm 2 mps 546 mmHg 49%
    05:00 -2°C° 0 mm 2 mps 547 mmHg 46%
    06:00 -2°C° 0 mm 2 mps 547 mmHg 43%
    07:00 -1°C° 0.3 mm 2 mps 548 mmHg 45%
    08:00 +3°C° 0.3 mm 1 mps 549 mmHg 47%
    09:00 +4°C° 0.3 mm 1 mps 550 mmHg 49%
    10:00 +4°C° 0.3 mm 2 mps 550 mmHg 51%
    11:00 +5°C° 0.3 mm 2 mps 550 mmHg 52%
    12:00 +6°C° 0.3 mm 2 mps 551 mmHg 54%
    13:00 +6°C° 0.2 mm 2 mps 550 mmHg 54%
    14:00 +6°C° 0.2 mm 2 mps 550 mmHg 54%
    15:00 +5°C° 0.2 mm 3 mps 550 mmHg 54%
    16:00 +5°C° 0 mm 2 mps 549 mmHg 60%
    17:00 +4°C° 0 mm 2 mps 549 mmHg 67%
    18:00 +3°C° 0 mm 1 mps 548 mmHg 74%
    19:00 +2°C° 0 mm 1 mps 549 mmHg 72%
    20:00 +2°C° 0 mm 1 mps 549 mmHg 70%
    21:00 +1°C° 0 mm 1 mps 549 mmHg 69%
    22:00 +1°C° 0 mm 1 mps 549 mmHg 64%
    23:00 -2°C° 0 mm 2 mps 549 mmHg 60%

    20 February, Wednesday

    Time Temperature Precipitation Wind Pressure Humidity
    00:00 -2°C° 0 mm 2 mps 550 mmHg 55%
    01:00 -2°C° 0 mm 2 mps 549 mmHg 52%
    02:00 -2°C° 0 mm 2 mps 549 mmHg 48%
    03:00 -2°C° 0 mm 2 mps 549 mmHg 44%
    04:00 -2°C° 0 mm 3 mps 549 mmHg 41%
    05:00 -2°C° 0 mm 3 mps 549 mmHg 38%
    06:00 -2°C° 0 mm 3 mps 549 mmHg 35%
    07:00 +2°C° 0 mm 2 mps 551 mmHg 31%
    08:00 +4°C° 0 mm 2 mps 553 mmHg 28%
    09:00 +8°C° 0 mm 1 mps 554 mmHg 24%
    10:00 +8°C° 0 mm 2 mps 555 mmHg 24%
    11:00 +9°C° 0 mm 2 mps 555 mmHg 24%
    12:00 +10°C° 0 mm 3 mps 555 mmHg 24%
    13:00 +10°C° 0 mm 3 mps 555 mmHg 24%
    14:00 +10°C° 0 mm 3 mps 554 mmHg 25%
    15:00 +10°C° 0 mm 3 mps 553 mmHg 25%
    16:00 +8°C° 0 mm 2 mps 553 mmHg 30%
    17:00 +6°C° 0 mm 2 mps 552 mmHg 35%
    18:00 +5°C° 0 mm 1 mps 551 mmHg 39%
    19:00 +5°C° 0 mm 1 mps 551 mmHg 38%
    20:00 +4°C° 0 mm 1 mps 551 mmHg 37%
    21:00 +2°C° 0 mm 2 mps 551 mmHg 37%
    22:00 +2°C° 0 mm 2 mps 552 mmHg 35%
    23:00 +2°C° 0 mm 2 mps 552 mmHg 33%

    21 February, Thursday

    Time Temperature Precipitation Wind Pressure Humidity
    00:00 +3°C° 0 mm 2 mps 552 mmHg 31%
    01:00 +3°C° 0 mm 2 mps 552 mmHg 30%
    02:00 +3°C° 0 mm 2 mps 552 mmHg 29%
    03:00 +3°C° 0 mm 2 mps 551 mmHg 27%
    04:00 +3°C° 0 mm 2 mps 551 mmHg 27%
    05:00 +2°C° 0 mm 3 mps 551 mmHg 27%
    06:00 +1°C° 0 mm 3 mps 551 mmHg 26%
    07:00 +5°C° 0 mm 2 mps 553 mmHg 25%
    08:00 +7°C° 0 mm 2 mps 555 mmHg 24%
    09:00 +10°C° 0 mm 1 mps 557 mmHg 23%
    10:00 +10°C° 0 mm 2 mps 557 mmHg 24%
    11:00 +12°C° 0 mm 2 mps 557 mmHg 25%
    12:00 +12°C° 0 mm 3 mps 557 mmHg 26%
    13:00 +12°C° 0 mm 3 mps 556 mmHg 26%
    14:00 +12°C° 0 mm 3 mps 556 mmHg 26%
    15:00 +12°C° 0 mm 3 mps 555 mmHg 26%
    16:00 +10°C° 0 mm 2 mps 554 mmHg 31%
    17:00 +8°C° 0 mm 2 mps 553 mmHg 35%
    18:00 +8°C° 0 mm 1 mps 553 mmHg 39%
    19:00 +7°C° 0 mm 1 mps 553 mmHg 40%
    20:00 +6°C° 0 mm 1 mps 553 mmHg 41%
    21:00 +4°C° 0 mm 2 mps 553 mmHg 41%
    22:00 +4°C° 0 mm 2 mps 552 mmHg 41%
    23:00 +4°C° 0 mm 2 mps 552 mmHg 42%
    Show more